Wind_Speed
20 19 17 13 9 5 4 2 12 14 16 15 14 16 19 16 16 15 16 15 12 13 11 12 11 11 11 11 11 11 11 11 12 13 15 16 17 17 17 17 16 16 15 16 16 15 15 16 17
22 20 17 14 11 5 3 9 14 19 15 12 12 13 14 12 13 13 12 11 9 9 9 8 8 8 8 8 9 9 9 9 10 11 12 14 15 16 16 16 16 15 16 16 16 16 16 16 17
22 22 19 16 13 5 5 10 12 19 15 13 13 11 10 9 10 10 9 8 6 7 7 7 7 7 8 8 9 9 9 9 9 10 10 11 12 13 14 14 14 14 15 15 15 15 16 16 17
19 19 18 16 11 5 9 8 8 16 13 10 12 10 8 8 8 7 6 6 5 6 7 8 8 8 9 9 9 9 9 9 9 9 9 10 10 11 11 11 12 12 13 13 14 15 15 16 17
15 14 14 14 10 7 7 10 12 15 11 8 10 10 8 8 8 7 6 6 6 6 7 8 9 9 10 10 10 9 9 9 9 9 9 9 10 10 10 10 11 11 12 12 13 14 15 15 16
12 13 13 11 7 6 9 14 15 13 11 5 8 11 9 9 9 8 8 7 7 7 7 8 9 10 10 10 10 9 9 9 10 10 10 11 11 11 11 11 11 12 12 13 13 14 15 15 16
12 15 14 11 4 8 12 15 14 13 7 4 6 11 11 11 10 10 9 8 7 7 7 8 9 10 11 11 10 10 10 10 11 11 11 12 12 12 12 13 13 13 13 14 15 15 16 17 17
12 14 17 14 8 10 14 14 13 13 9 7 6 13 13 13 12 12 11 10 9 8 7 8 8 9 10 10 10 10 11 11 12 12 12 12 13 13 13 14 14 14 14 15 15 16 17 17 18
10 12 15 14 7 11 14 13 12 13 11 7 9 15 13 13 12 13 13 12 11 10 9 8 9 10 10 10 11 11 12 12 12 12 12 13 13 14 14 14 14 15 15 16 16 17 17 18 18
10 13 13 8 7 14 14 14 13 12 11 8 11 13 11 10 11 12 13 13 12 12 11 10 11 11 11 11 11 12 12 12 12 13 13 14 14 14 14 14 15 15 16 16 17 17 17 17 17
11 15 15 11 18 21 17 14 14 14 14 14 16 15 8 11 13 13 13 13 13 14 14 13 13 12 12 12 13 13 13 13 13 14 14 14 14 14 14 14 15 16 16 16 17 16 16 17 17
14 17 16 16 21 26 22 16 16 17 18 20 23 21 10 11 15 14 14 14 14 14 15 15 15 15 15 15 15 15 14 14 14 15 15 15 15 15 15 15 15 16 16 17 17 17 17 19 20
17 18 17 17 19 22 22 19 18 17 20 23 24 20 14 16 17 16 16 15 16 16 16 16 16 17 17 17 17 17 16 16 15 15 16 16 16 17 17 17 18 18 18 18 19 20 20 22 22
20 21 21 20 20 20 21 20 19 18 20 24 24 19 17 18 20 19 20 19 18 18 19 19 18 18 19 19 19 19 19 18 18 18 18 18 18 19 19 19 20 21 22 22 23 24 24 26 26
25 25 24 23 21 20 20 21 19 18 21 25 25 20 19 22 25 24 23 21 21 20 21 22 21 20 21 21 22 22 22 22 21 21 21 22 21 22 23 23 23 24 25 26 28 28 29 30 31
27 28 27 23 22 21 22 22 17 17 23 28 27 24 24 27 28 28 27 24 23 22 23 24 25 24 24 25 25 25 25 25 25 25 25 25 26 26 26 26 27 28 29 29 31 33 34 36 36
28 28 26 24 22 20 23 23 16 19 27 31 30 27 27 28 29 30 30 28 26 25 24 26 28 27 28 29 29 29 29 29 29 29 29 29 30 30 31 30 31 32 32 33 35 36 37 39 40
25 25 23 22 19 22 25 26 21 22 29 32 31 29 29 30 32 32 33 32 29 27 27 28 30 30 31 32 33 33 34 34 34 35 35 33 33 35 35 34 34 35 36 37 38 39 41 43 45
24 22 20 20 18 23 29 31 29 25 30 32 32 32 32 31 35 35 36 34 31 31 31 31 32 33 34 36 37 37 38 39 39 39 40 38 37 37 37 37 36 36 38 40 41 43 45 47 49
26 27 26 25 23 25 31 35 35 32 31 33 35 35 35 34 37 40 38 40 37 35 33 33 35 35 37 39 40 41 42 43 43 43 42 41 39 38 38 39 39 39 42 43 45 47 48 50 53
26 28 29 29 28 30 32 36 39 39 36 35 38 41 40 38 40 44 44 43 41 38 35 35 36 37 39 41 43 44 44 44 45 45 45 43 40 38 40 39 40 42 44 46 47 49 50 53 55
27 27 29 31 31 33 33 36 36 35 32 31 34 38 39 37 38 42 43 42 40 38 37 36 37 38 40 42 44 46 47 47 46 47 46 44 42 42 42 41 43 45 46 46 48 50 52 54 56
25 23 24 25 29 33 34 36 35 30 29 29 30 35 37 36 36 38 39 38 38 38 37 37 37 39 41 43 45 47 48 48 47 47 46 45 43 42 43 43 44 46 47 49 51 53 55 56 56
21 21 23 25 26 31 29 30 33 28 28 27 27 31 34 34 35 35 35 34 35 36 36 36 38 40 41 43 44 46 47 47 47 47 46 46 45 44 44 45 46 47 49 51 54 56 56 56 57
20 20 20 21 22 23 18 22 24 20 21 24 26 31 34 34 35 37 36 34 34 34 35 36 37 39 41 42 44 45 46 46 47 47 46 46 46 45 46 48 49 50 52 54 56 57 56 57 58
21 20 19 19 17 17 15 17 17 18 21 25 30 34 36 37 37 37 36 34 34 33 34 36 37 39 41 42 43 44 45 46 46 46 47 47 47 47 48 50 51 53 55 58 58 58 58 59 59
22 22 19 20 21 23 22 21 19 20 23 26 29 30 31 32 30 31 32 33 32 33 34 36 37 38 40 41 43 44 45 45 45 46 47 47 48 49 51 53 55 57 59 59 59 59 60 60 61
23 21 22 23 24 25 24 21 19 20 22 24 24 25 26 28 27 30 31 31 31 33 34 35 36 37 39 41 42 44 45 45 46 46 46 48 50 52 55 56 57 59 60 61 61 61 62 62 62
24 23 24 25 24 24 23 19 18 23 24 26 24 25 28 30 33 34 32 32 32 33 34 35 37 38 40 42 43 45 46 46 47 48 49 51 53 55 56 58 60 61 61 63 64 64 63 62 62
25 24 23 26 27 27 27 26 24 27 26 26 28 32 37 40 40 37 35 34 33 34 36 37 39 40 41 42 44 46 47 48 49 51 53 55 56 57 58 59 60 61 62 64 64 63 61 61 61
Wind_Direction
215 219 221 216 207 184 68 323 255 260 262 265 273 276 276 277 281 287 293 296 298 290 288 281 276 272 272 275 276 273 268 263 259 256 253 250 249 250 251 251 250 250 251 252 251 251 252 254 256
216 220 221 216 204 159 319 240 246 263 272 282 288 281 280 286 287 289 293 295 296 293 293 289 286 282 283 285 285 286 284 277 271 264 258 253 249 249 249 250 251 252 253 254 254 255 257 258 259
217 220 220 216 203 176 253 231 238 266 283 286 291 293 298 302 297 295 298 300 305 304 303 300 298 294 293 292 290 286 284 283 279 271 263 255 251 248 249 251 253 255 256 256 256 257 259 261 262
216 219 217 213 197 192 256 236 232 270 283 286 296 304 313 313 312 312 316 321 323 321 316 312 309 302 298 296 290 284 280 278 274 269 262 256 252 249 249 252 253 255 256 257 258 260 262 264 266
213 212 205 192 178 181 247 250 248 265 278 288 297 307 317 319 324 327 332 341 342 333 327 325 323 318 312 304 294 286 280 274 269 265 262 260 258 255 254 255 258 259 260 261 262 264 266 268 271
203 197 188 166 155 185 235 252 249 253 257 279 296 309 322 322 325 327 333 340 340 338 335 335 332 327 320 312 301 291 282 274 269 267 267 266 265 264 262 263 265 266 266 266 267 268 270 271 273
193 185 163 141 163 223 238 246 255 262 254 256 283 305 317 315 319 323 328 333 336 341 339 340 336 330 323 316 307 298 290 282 277 273 272 272 271 271 270 270 271 272 270 270 270 270 271 272 273
192 188 162 154 186 224 243 246 248 257 247 239 270 290 302 308 316 321 326 331 333 336 338 340 337 329 322 316 309 302 295 289 283 278 276 276 276 275 274 275 274 274 273 272 273 273 274 274 273
187 184 160 140 180 225 237 244 242 253 256 255 274 280 293 303 315 324 330 334 333 332 335 335 331 332 326 318 311 304 298 293 287 283 280 278 278 278 278 278 277 276 276 276 275 275 274 274 274
185 170 145 126 202 229 228 234 241 255 262 253 262 279 292 305 319 328 333 335 335 334 331 331 326 325 322 319 315 309 304 298 293 289 286 285 284 283 282 281 281 281 281 279 277 277 276 276 276
191 181 168 186 206 210 210 219 234 246 264 258 250 251 276 314 324 329 332 334 335 333 329 329 326 324 321 318 315 312 307 302 297 294 292 291 292 292 291 290 289 287 286 284 282 280 279 278 277
207 202 199 205 213 215 210 207 226 237 252 261 261 247 256 312 321 324 327 329 330 328 327 326 324 322 319 315 313 312 310 305 301 299 297 297 298 299 299 298 296 295 292 289 287 285 283 282 280
220 220 220 220 219 216 216 213 221 235 245 262 272 276 284 302 311 315 317 321 323 323 322 323 323 321 318 314 311 309 308 306 305 302 301 301 302 303 303 303 302 300 296 293 289 287 284 282 281
229 230 230 229 227 221 223 222 220 227 244 258 265 268 275 294 301 306 311 315 316 317 316 317 318 318 316 313 309 306 305 305 304 302 301 300 300 299 299 299 299 299 296 293 289 288 286 283 282
233 236 239 236 235 232 233 232 227 230 240 252 262 266 272 287 294 299 302 308 310 309 311 311 312 312 311 309 307 303 302 302 302 299 298 298 296 295 294 294 295 294 293 292 291 288 287 285 283
238 240 244 245 244 241 241 242 236 245 246 251 258 263 271 281 288 292 296 297 304 303 305 306 305 306 305 305 303 302 300 299 298 297 295 294 292 290 290 291 291 291 291 291 290 290 289 288 287
241 245 248 248 250 253 249 249 228 238 247 251 255 259 267 275 283 285 289 296 299 300 299 299 299 301 299 299 299 300 299 298 296 294 294 291 290 288 287 288 288 289 290 291 291 291 290 290 289
245 249 252 253 248 254 252 254 244 237 244 251 259 263 268 274 277 277 282 288 290 295 295 294 295 295 294 294 295 295 295 295 295 292 291 290 290 288 286 286 287 289 291 291 292 293 292 291 291
235 233 240 254 253 244 250 254 251 243 254 256 258 262 267 271 275 274 276 284 288 292 291 289 289 289 289 289 290 291 291 292 293 293 291 289 289 290 288 285 285 288 290 291 292 292 291 291 290
235 231 230 232 231 235 243 249 251 243 245 259 263 261 261 264 267 271 275 281 286 287 287 287 286 285 284 285 286 287 288 289 290 291 292 289 290 290 290 286 285 287 289 291 292 291 291 291 290
239 239 236 236 232 229 236 247 253 258 254 253 260 265 267 266 266 269 275 279 282 284 285 283 282 281 281 282 283 284 284 286 288 289 291 291 288 290 291 290 288 289 291 293 292 291 290 290 290
242 244 243 240 240 239 241 254 260 270 274 267 262 263 268 271 270 271 274 278 281 282 281 280 279 279 279 280 281 283 283 285 288 289 289 289 290 290 291 291 290 292 294 296 295 294 293 292 291
243 244 247 249 251 251 248 253 259 262 266 268 270 266 268 273 273 272 274 275 275 277 278 277 277 278 279 279 279 281 284 286 288 289 288 289 291 292 292 292 292 293 294 295 295 296 295 294 292
243 244 247 249 253 258 263 265 268 264 262 267 266 262 264 270 270 274 276 275 272 273 274 275 276 278 279 280 281 283 285 287 288 288 288 289 290 291 291 292 293 294 294 295 295 296 295 294 294
246 246 249 256 262 273 286 282 285 281 262 255 252 253 259 263 267 273 276 274 272 271 273 274 276 277 279 281 282 283 285 286 287 286 287 288 289 291 292 292 293 294 296 297 297 297 296 295 295
246 251 249 248 255 266 268 273 276 263 251 245 247 253 262 269 271 270 270 270 268 269 271 274 276 277 279 281 281 283 284 285 286 286 287 288 289 292 294 295 295 297 298 298 298 297 296 296 295
236 243 253 258 256 254 251 248 255 270 273 269 266 266 266 269 271 267 267 266 267 270 272 273 275 277 278 279 280 283 285 285 286 287 288 290 292 294 295 296 297 297 298 298 298 297 297 297 297
250 240 240 247 255 261 263 267 272 268 262 260 258 258 259 260 269 270 270 268 269 271 272 273 275 276 277 279 280 283 284 287 288 290 291 292 294 295 296 296 296 297 298 298 297 297 298 297 297
249 252 246 245 247 256 264 264 266 263 257 254 259 262 264 266 274 273 274 275 273 273 273 274 275 276 278 280 282 285 287 288 290 291 292 292 294 295 296 295 295 296 298 298 298 297 297 297 297
244 246 251 253 252 251 255 257 260 266 265 261 260 262 265 268 272 273 278 278 277 276 276 276 278 280 282 284 285 287 289 291 292 292 293 293 294 295 294 294 295 297 299 299 299 298 297 298 299
Height
5888 5890 5893 5897 5900 5901 5902 5905 5904 5902 5898 5897 5897 5896 5893 5893 5892 5893 5889 5887 5888 5887 5887 5886 5886 5885 5885 5884 5884 5884 5884 5884 5885 5885 5886 5887 5887 5888 5889 5889 5889 5889 5890 5890 5890 5891 5891 5891 5891
5886 5888 5891 5895 5898 5898 5901 5903 5900 5899 5897 5895 5895 5893 5891 5891 5890 5889 5887 5887 5887 5885 5885 5885 5884 5884 5883 5883 5882 5882 5882 5882 5882 5883 5883 5884 5885 5885 5886 5886 5886 5887 5887 5887 5888 5888 5888 5888 5889
5883 5886 5889 5893 5895 5895 5898 5898 5897 5896 5897 5895 5893 5892 5890 5890 5889 5887 5886 5885 5885 5884 5884 5883 5883 5883 5882 5881 5881 5880 5880 5880 5880 5881 5881 5881 5882 5883 5883 5884 5884 5884 5884 5884 5885 5885 5885 5885 5885
5881 5884 5887 5891 5894 5895 5897 5896 5896 5895 5896 5893 5891 5890 5889 5889 5888 5887 5885 5884 5884 5883 5883 5882 5882 5881 5881 5880 5880 5879 5879 5879 5878 5879 5879 5879 5880 5880 5881 5881 5881 5881 5881 5882 5882 5882 5882 5882 5882
5880 5883 5886 5889 5892 5894 5896 5895 5895 5895 5894 5892 5890 5888 5888 5888 5887 5886 5885 5884 5883 5882 5881 5881 5880 5880 5879 5879 5878 5878 5878 5877 5877 5877 5877 5877 5878 5878 5878 5878 5878 5878 5878 5879 5879 5878 5878 5878 5878
5880 5882 5885 5887 5891 5896 5898 5896 5894 5893 5891 5889 5889 5887 5887 5887 5886 5885 5884 5883 5882 5881 5880 5879 5879 5878 5878 5877 5877 5876 5876 5876 5876 5875 5875 5875 5875 5875 5876 5876 5876 5875 5876 5876 5876 5875 5875 5875 5875
5879 5880 5882 5887 5893 5898 5899 5896 5893 5892 5889 5888 5888 5886 5886 5885 5885 5884 5883 5882 5881 5880 5879 5878 5878 5877 5877 5876 5876 5875 5875 5874 5874 5874 5874 5873 5873 5873 5873 5873 5873 5873 5873 5873 5873 5872 5872 5872 5872
5877 5880 5880 5885 5892 5897 5897 5895 5893 5891 5890 5889 5888 5886 5885 5885 5883 5883 5882 5881 5880 5880 5879 5878 5877 5876 5876 5875 5874 5874 5873 5873 5872 5872 5871 5871 5871 5871 5870 5870 5870 5870 5870 5869 5869 5869 5869 5868 5868
5876 5880 5881 5885 5892 5896 5895 5894 5892 5890 5889 5888 5887 5885 5885 5883 5882 5881 5880 5879 5878 5878 5878 5877 5876 5875 5875 5874 5873 5872 5871 5871 5870 5870 5869 5869 5868 5868 5868 5867 5867 5867 5866 5866 5865 5865 5865 5864 5864
5875 5878 5881 5885 5892 5894 5893 5893 5892 5890 5889 5887 5886 5884 5883 5882 5881 5880 5879 5878 5877 5876 5876 5875 5875 5874 5873 5872 5871 5870 5870 5869 5868 5867 5867 5866 5865 5865 5865 5864 5863 5863 5862 5861 5861 5861 5860 5860 5859
5874 5876 5876 5881 5886 5887 5888 5891 5891 5890 5889 5887 5884 5879 5880 5880 5880 5879 5877 5876 5875 5875 5874 5873 5873 5872 5872 5871 5870 5869 5868 5867 5866 5865 5864 5863 5862 5862 5861 5860 5859 5858 5858 5857 5856 5856 5856 5855 5855
5872 5873 5874 5877 5880 5882 5884 5886 5889 5889 5888 5885 5882 5874 5874 5877 5878 5877 5875 5874 5874 5873 5872 5872 5871 5870 5870 5869 5868 5867 5866 5865 5864 5862 5861 5860 5859 5858 5857 5857 5856 5855 5854 5853 5852 5852 5851 5850 5849
5869 5871 5872 5874 5876 5878 5881 5882 5884 5886 5884 5882 5879 5874 5871 5875 5876 5875 5873 5872 5872 5871 5870 5870 5869 5868 5867 5866 5865 5865 5864 5863 5861 5860 5859 5857 5856 5855 5854 5853 5851 5851 5850 5849 5848 5847 5846 5845 5844
5865 5867 5869 5871 5873 5875 5877 5878 5881 5883 5881 5879 5876 5873 5869 5872 5873 5872 5871 5870 5869 5869 5868 5867 5867 5867 5866 5864 5863 5862 5861 5860 5859 5858 5856 5855 5853 5852 5851 5850 5848 5847 5846 5845 5843 5842 5841 5840 5839
5860 5862 5864 5866 5869 5871 5873 5875 5877 5880 5879 5877 5874 5870 5868 5871 5871 5870 5869 5867 5866 5865 5865 5864 5864 5864 5863 5862 5861 5859 5858 5857 5856 5855 5854 5852 5850 5849 5847 5846 5845 5843 5842 5840 5838 5837 5836 5834 5833
5855 5857 5860 5863 5865 5867 5870 5871 5874 5876 5876 5874 5873 5872 5871 5870 5868 5866 5864 5863 5863 5862 5862 5861 5861 5861 5860 5859 5857 5856 5855 5854 5852 5851 5850 5848 5846 5845 5843 5842 5840 5837 5836 5835 5833 5831 5829 5827 5825
5849 5852 5855 5858 5860 5862 5864 5866 5871 5872 5871 5870 5869 5869 5869 5868 5866 5862 5859 5859 5859 5859 5858 5858 5856 5857 5856 5854 5853 5852 5851 5849 5848 5847 5845 5843 5841 5839 5837 5836 5834 5831 5830 5828 5825 5823 5821 5819 5816
5846 5847 5850 5853 5857 5859 5860 5861 5865 5866 5865 5864 5864 5864 5865 5864 5862 5858 5856 5855 5853 5854 5854 5854 5852 5852 5851 5850 5848 5847 5845 5844 5843 5841 5839 5838 5836 5833 5830 5829 5827 5824 5822 5820 5818 5815 5812 5809 5806
5839 5842 5847 5851 5855 5857 5856 5856 5859 5861 5859 5859 5860 5860 5861 5860 5857 5853 5851 5850 5848 5848 5849 5849 5847 5847 5845 5844 5843 5841 5839 5838 5837 5835 5832 5830 5828 5826 5823 5821 5820 5817 5814 5811 5809 5806 5802 5799 5796
5833 5836 5840 5845 5850 5852 5851 5850 5851 5853 5855 5852 5852 5854 5855 5855 5851 5847 5844 5845 5845 5844 5843 5841 5841 5840 5839 5837 5836 5834 5833 5831 5829 5827 5825 5823 5820 5818 5815 5813 5811 5808 5805 5802 5799 5795 5792 5788 5783
5829 5832 5835 5838 5841 5842 5844 5842 5842 5844 5847 5848 5846 5846 5847 5847 5844 5840 5839 5839 5838 5837 5836 5835 5834 5833 5831 5830 5828 5826 5824 5823 5822 5819 5817 5815 5812 5810 5807 5804 5802 5798 5795 5792 5788 5784 5780 5776 5771
5823 5826 5828 5830 5832 5834 5837 5836 5837 5837 5838 5839 5839 5838 5838 5839 5837 5833 5832 5831 5830 5829 5829 5828 5827 5825 5824 5822 5820 5818 5816 5814 5813 5810 5808 5806 5803 5801 5798 5795 5792 5788 5784 5781 5776 5772 5767 5763 5758
5817 5820 5822 5824 5825 5826 5828 5828 5829 5832 5833 5833 5832 5831 5830 5830 5828 5825 5824 5824 5822 5822 5821 5820 5818 5817 5815 5814 5812 5810 5807 5805 5803 5801 5798 5796 5794 5791 5788 5785 5782 5777 5773 5769 5764 5759 5754 5749 5743
5811 5814 5815 5817 5818 5819 5821 5822 5821 5825 5827 5828 5827 5824 5822 5821 5818 5817 5817 5816 5815 5813 5812 5811 5810 5808 5807 5805 5804 5801 5798 5796 5793 5791 5788 5786 5784 5781 5778 5775 5771 5766 5762 5757 5752 5747 5741 5735 5730
5807 5809 5811 5812 5813 5814 5817 5816 5816 5819 5820 5821 5820 5817 5814 5813 5811 5809 5809 5808 5807 5805 5804 5803 5801 5800 5798 5797 5795 5792 5790 5787 5784 5781 5778 5775 5773 5771 5768 5763 5759 5754 5749 5744 5739 5733 5727 5721 5716
5802 5804 5806 5808 5811 5813 5815 5814 5814 5812 5812 5811 5811 5809 5808 5806 5804 5801 5800 5799 5797 5796 5795 5794 5792 5791 5789 5787 5785 5783 5780 5778 5775 5771 5768 5765 5762 5759 5756 5751 5747 5741 5736 5730 5725 5719 5713 5707 5701
5797 5799 5802 5803 5803 5804 5806 5808 5809 5807 5805 5804 5803 5802 5800 5796 5794 5792 5792 5790 5789 5788 5787 5786 5784 5783 5781 5779 5776 5774 5771 5768 5765 5762 5758 5755 5751 5747 5743 5738 5733 5728 5723 5717 5711 5705 5699 5692 5686
5791 5794 5796 5797 5798 5798 5800 5803 5804 5802 5799 5796 5794 5792 5790 5787 5785 5784 5783 5781 5781 5780 5779 5778 5776 5774 5772 5770 5767 5765 5762 5759 5755 5751 5748 5744 5739 5735 5730 5725 5720 5714 5709 5703 5696 5690 5684 5678 5671
5787 5787 5789 5791 5793 5794 5795 5799 5796 5792 5790 5788 5787 5784 5781 5778 5777 5775 5772 5773 5773 5772 5771 5769 5768 5765 5763 5761 5758 5755 5752 5748 5744 5741 5737 5732 5727 5722 5717 5711 5706 5700 5694 5688 5682 5676 5669 5663 5656
5781 5782 5784 5784 5784 5786 5787 5791 5789 5784 5783 5781 5779 5776 5772 5770 5769 5767 5766 5765 5765 5764 5762 5761 5759 5757 5754 5752 5748 5745 5741 5737 5733 5729 5724 5720 5714 5709 5703 5697 5691 5686 5680 5674 5668 5661 5654 5648 5641